カタログに戻る

NAVSTAR 44

USA 135

運用中ナビゲーションMEO
NORAD 25030·PAYLOAD·🇺🇸 United States

打ち上げ Nov 6, 1997 から Cape Canaveral Space Force Station

Loading…

次のパス (今後24時間)

TLE

最新Source: Space-Track

元期: Sep 9, 2026, 02:56 UTC

1 25030U 97067A   26252.12279800 -.00000027  00000-0  00000-0 0  9995
2 25030  55.5973 170.7203 0021266 262.8673 259.5824  1.88437666208270

AllMySatでNAVSTAR 44をリアルタイム追跡

Download on the App Store